User: anonymous   Login
Location: ?????????
(55.6553°N, 38.9075°E)
Time: 21:54:11
(UTC+00:00)
Language:

Cosmos 292 Rocket - Orbit

View from above orbital plane
View from above orbital plane
View from above satellite
View from above satellite

Ground track
Ground track

The orbit data is extracted from the following two-line orbital elements,

1  4071U 69070B   19345.12451051  .00000083  00000-0  22284-4 0  9998
2  4071  74.0472 184.3282 0015721 290.0357  69.9117 14.62808762670468
Epoch (UTC): 11 December 2019 02:59:17
Eccentricity: 0.0015721
inclination: 74.0472°
perigee height: 673 km
apogee height: 695 km
right ascension of ascending node: 184.3282°
argument of perigee: 290.0357°
revolutions per day: 14.62808762
mean anomaly at epoch: 69.9117°
orbit number at epoch: 67046

The dashed part of the orbit path shows where the satellite is in the earth's shadow,  

DLR